Dewpoint
57 59 62 65 65 65 65 66 66 66 66 66 65 66 66 66 66 65 65 65 65 64 63 63 62 62 62 62 61 60 59 58
59 60 59 61 61 64 65 65 66 66 65 64 64 65 64 65 64 64 63 63 63 62 61 60 59 59 59 59 58 59 58 57
61 59 62 62 60 61 63 64 65 65 64 64 62 61 61 61 63 62 61 61 60 59 58 57 56 57 56 56 56 53 55 55
61 63 63 63 58 61 62 61 61 62 62 63 61 63 62 59 61 61 61 60 59 58 57 55 54 51 51 55 50 54 52 53
61 64 65 64 60 59 57 58 60 62 64 63 63 63 63 62 61 60 61 59 56 55 54 51 52 53 52 54 52 53 50 50
61 63 64 63 57 56 58 57 59 59 62 64 63 60 61 61 59 58 59 57 58 56 54 56 56 54 53 53 53 51 48 49
61 63 62 58 60 59 61 61 59 60 61 62 63 59 59 59 58 57 56 55 54 55 54 54 53 51 49 48 46 49 50 43
61 61 59 57 57 60 60 61 59 60 58 59 63 62 59 57 54 53 52 52 52 53 53 52 48 47 45 44 41 44 43 42
60 59 57 57 56 57 56 55 58 55 54 58 59 60 57 57 53 51 49 51 56 56 54 53 49 45 42 41 41 45 41 41
57 55 55 56 55 55 53 52 53 51 52 52 55 56 57 55 51 50 51 52 52 51 51 49 48 45 41 38 39 40 42 42
55 57 56 54 54 53 54 54 52 49 51 49 51 53 54 54 51 51 53 51 51 51 50 50 47 44 40 39 40 39 40 37
53 54 54 53 53 53 50 50 48 48 46 45 48 47 50 51 49 51 51 50 49 49 51 49 48 45 38 36 39 40 40 39
50 50 51 50 50 47 45 44 43 42 41 44 47 46 48 49 47 48 49 50 50 51 49 50 49 47 45 42 40 42 44 41
45 44 43 42 42 43 44 44 42 44 45 47 46 47 47 45 47 47 48 47 49 50 51 49 48 47 45 42 38 38 40 41
42 43 44 45 45 43 44 44 43 41 42 41 43 44 44 45 45 46 47 47 46 48 49 49 47 47 47 44 38 36 37 39
45 44 43 44 46 44 45 42 40 42 43 42 41 42 42 42 44 45 47 46 46 46 45 47 47 45 46 45 46 44 39 38
46 44 44 44 45 46 44 43 42 42 42 43 42 41 40 39 42 45 45 45 45 47 48 48 46 45 44 44 45 43 43 41
45 43 42 44 44 45 45 43 43 41 40 38 36 36 36 39 40 44 45 45 44 44 45 44 44 44 42 42 40 38 38 39
43 43 41 41 42 42 42 41 41 39 39 37 38 36 36 39 42 43 43 44 43 43 43 42 42 41 41 40 39 38 38 37
44 42 41 40 40 40 41 41 40 39 39 39 38 37 38 42 43 43 42 41 41 42 43 42 40 39 38 38 38 38 38 37
Lifted_Index
-3 -2 -2 -2 -2 -2 -3 -3 -3 -3 -2 -2 -2 -2 -2 -3 -3 -2 -2 -2 -2 -2 -1 -1 -1 -1 -1 -0 -0 -1 -1 -2
-3 -3 -3 -3 -2 -2 -2 -2 -2 -2 -2 -2 -2 -2 -2 -2 -2 -1 -1 -1 -1 -0 -0 -0 0 0 1 1 1 -0 -1 -1
-4 -4 -4 -3 -2 -2 -2 -2 -2 -2 -2 -2 -2 -2 -2 -2 -1 -0 0 0 1 1 1 2 2 2 2 2 2 1 0 0
-4 -4 -4 -3 -2 -2 -2 -2 -2 -3 -3 -3 -2 -2 -2 -2 -1 -0 0 1 1 2 2 3 3 3 3 3 3 2 2 2
-4 -5 -4 -3 -2 -2 -2 -2 -2 -3 -3 -3 -3 -3 -2 -2 -2 -1 -1 -0 1 1 2 2 3 3 3 3 3 3 3 3
-4 -4 -4 -3 -2 -2 -2 -2 -2 -3 -3 -3 -3 -2 -2 -2 -2 -1 -1 -0 0 1 2 2 2 3 3 4 4 3 3 4
-4 -4 -3 -2 -2 -2 -2 -2 -2 -2 -2 -3 -3 -2 -2 -1 -1 -0 0 1 1 1 2 2 3 4 5 6 6 5 5 6
-4 -4 -3 -2 -1 -2 -2 -2 -2 -2 -1 -2 -2 -2 -1 -0 1 1 2 2 2 2 2 3 4 5 6 7 7 7 7 8
-4 -3 -2 -1 -1 -1 -1 -1 -1 -0 0 0 -0 -0 0 1 2 2 3 3 2 2 2 3 4 6 7 8 8 8 8 8
-3 -3 -2 -1 -1 -0 -0 0 1 1 2 2 2 1 1 2 2 3 3 3 3 3 3 3 4 5 7 7 8 8 8 8
-2 -2 -1 -0 0 0 1 1 2 3 3 3 3 3 3 3 3 4 4 3 3 3 3 3 4 5 6 7 7 7 7 8
-1 -1 -0 0 1 2 2 2 3 3 4 4 4 4 4 4 4 4 4 4 4 3 3 3 3 4 5 6 6 6 6 7
1 1 1 2 2 3 3 4 4 4 5 5 5 5 6 6 5 5 5 4 4 3 3 3 3 3 4 4 5 5 5 5
3 3 3 3 4 4 4 5 5 5 5 5 6 6 6 6 6 5 5 4 3 3 2 2 2 2 3 3 4 4 4 4
4 4 4 4 5 5 5 5 5 5 5 5 6 6 7 7 6 5 5 4 3 3 2 2 2 2 2 2 3 3 3 3
5 5 5 5 5 5 5 5 5 5 5 5 6 6 7 7 6 6 5 5 4 4 3 3 2 2 2 2 2 3 3 3
5 5 6 6 6 5 5 5 5 5 5 5 6 7 7 7 6 6 6 5 5 5 4 4 3 3 3 2 3 3 3 3
5 6 6 6 6 5 5 5 6 6 6 7 7 7 7 7 7 6 6 6 6 6 6 5 5 5 5 4 4 4 4 4
5 5 6 6 6 6 6 7 7 7 7 8 8 8 8 7 7 7 6 7 7 7 7 7 7 7 7 6 6 6 5 5
5 5 6 6 6 7 7 7 7 7 7 8 8 8 8 7 7 7 7 7 7 8 8 8 8 8 8 7 7 7 7 7